contact:dominique.lefevre@mio.osupytheas.fr, maurice.libes@osupytheas.fr, didier.mallarino@osupytheas.fr
Project:EMSO http://www.emso-fr.org/EMSO-France
Depth: 2436.0 m
Title:EMSO Ligure Ouest : Data MII capteur CSTAR
DateTime,Latitude,Longitude,Instrument_Serial,Reference_Counts,Signal_Counts,Corrected_Signal_raw_counts,Calculated_Beam_c_inverse_meters,Internal_thermistor_counts
DateTime,Latitude,Longitude,Instrument_Serial,Reference_Counts,Signal_Counts,Corrected_Signal_raw_counts,Calculated_Beam_c_inverse_meters,Internal_thermistor_counts
2020-07-16T00:01:42,42.805,6.029,CST-1368DR,6073,8503,15116,0.130,551
2020-07-16T00:04:44,42.805,6.029,CST-1368DR,6073,8503,15116,0.130,551
2020-07-16T00:07:46,42.805,6.029,CST-1368DR,6073,8503,15116,0.130,551
2020-07-16T00:10:47,42.805,6.029,CST-1368DR,6073,8502,15115,0.130,551
2020-07-16T00:13:49,42.805,6.029,CST-1368DR,6073,8501,15112,0.131,551
2020-07-16T00:16:51,42.805,6.029,CST-1368DR,6073,8502,15115,0.130,551
2020-07-16T00:19:53,42.805,6.029,CST-1368DR,6073,8502,15115,0.130,551
2020-07-16T00:22:54,42.805,6.029,CST-1368DR,6073,8502,15115,0.130,551
2020-07-16T00:25:56,42.805,6.029,CST-1368DR,6073,8502,15115,0.130,551
2020-07-16T00:28:58,42.805,6.029,CST-1368DR,6073,8501,15114,0.131,551
2020-07-16T00:31:59,42.805,6.029,CST-1368DR,6073,8502,15115,0.130,551
2020-07-16T00:35:01,42.805,6.029,CST-1368DR,6073,8503,15116,0.130,551
2020-07-16T00:38:03,42.805,6.029,CST-1368DR,6073,8502,15115,0.130,551
2020-07-16T00:41:04,42.805,6.029,CST-1368DR,6073,8503,15116,0.130,551
2020-07-16T00:44:06,42.805,6.029,CST-1368DR,6073,8502,15115,0.130,551
2020-07-16T00:47:08,42.805,6.029,CST-1368DR,6073,8502,15114,0.131,551
2020-07-16T00:50:09,42.805,6.029,CST-1368DR,6073,8503,15116,0.130,551
2020-07-16T00:53:11,42.805,6.029,CST-1368DR,6073,8502,15115,0.130,551
2020-07-16T00:56:13,42.805,6.029,CST-1368DR,6073,8502,15115,0.130,551
2020-07-16T00:59:14,42.805,6.029,CST-1368DR,6073,8502,15115,0.130,551
2020-07-16T01:02:16,42.805,6.029,CST-1368DR,6073,8502,15115,0.130,551
2020-07-16T01:05:18,42.805,6.029,CST-1368DR,6073,8502,15114,0.131,551
2020-07-16T01:08:20,42.805,6.029,CST-1368DR,6073,8503,15117,0.130,551
2020-07-16T01:11:21,42.805,6.029,CST-1368DR,6073,8502,15115,0.130,551
2020-07-16T01:14:23,42.805,6.029,CST-1368DR,6073,8502,15115,0.130,551
2020-07-16T01:17:25,42.805,6.029,CST-1368DR,6073,8503,15116,0.130,551
2020-07-16T01:20:26,42.805,6.029,CST-1368DR,6072,8498,15110,0.132,551
2020-07-16T01:23:28,42.805,6.029,CST-1368DR,6073,8502,15115,0.130,551
2020-07-16T01:26:30,42.805,6.029,CST-1368DR,6073,8503,15116,0.130,550
2020-07-16T01:29:31,42.805,6.029,CST-1368DR,6073,8502,15115,0.130,551
2020-07-16T01:32:33,42.805,6.029,CST-1368DR,6073,8503,15116,0.130,551
2020-07-16T01:35:35,42.805,6.029,CST-1368DR,6073,8502,15114,0.131,551
2020-07-16T01:38:37,42.805,6.029,CST-1368DR,6073,8503,15116,0.130,551
2020-07-16T01:41:38,42.805,6.029,CST-1368DR,6073,8502,15115,0.130,551
2020-07-16T01:44:40,42.805,6.029,CST-1368DR,6073,8503,15116,0.130,551
2020-07-16T01:47:42,42.805,6.029,CST-1368DR,6073,8502,15115,0.130,551
2020-07-16T01:50:43,42.805,6.029,CST-1368DR,6073,8503,15116,0.130,551
2020-07-16T01:53:45,42.805,6.029,CST-1368DR,6073,8502,15115,0.130,551
2020-07-16T01:56:47,42.805,6.029,CST-1368DR,6073,8502,15115,0.130,551
2020-07-16T01:59:48,42.805,6.029,CST-1368DR,6073,8502,15114,0.131,551
2020-07-16T02:02:50,42.805,6.029,CST-1368DR,6073,8500,15111,0.131,551
2020-07-16T02:05:52,42.805,6.029,CST-1368DR,6072,8502,15116,0.130,551
2020-07-16T02:08:53,42.805,6.029,CST-1368DR,6072,8500,15113,0.131,551
2020-07-16T02:11:55,42.805,6.029,CST-1368DR,6073,8503,15116,0.130,551
2020-07-16T02:14:57,42.805,6.029,CST-1368DR,6073,8502,15115,0.130,551
2020-07-16T02:17:59,42.805,6.029,CST-1368DR,6073,8502,15115,0.130,551
2020-07-16T02:21:00,42.805,6.029,CST-1368DR,6073,8502,15115,0.130,551
2020-07-16T02:24:02,42.805,6.029,CST-1368DR,6073,8502,15115,0.130,551
2020-07-16T02:27:03,42.805,6.029,CST-1368DR,6072,8502,15117,0.130,551
2020-07-16T02:30:05,42.805,6.029,CST-1368DR,6073,8502,15115,0.130,551
2020-07-16T02:33:07,42.805,6.029,CST-1368DR,6072,8502,15117,0.130,551
2020-07-16T02:36:09,42.805,6.029,CST-1368DR,6072,8500,15113,0.131,551
2020-07-16T02:39:10,42.805,6.029,CST-1368DR,6072,8502,15117,0.130,551
2020-07-16T02:42:12,42.805,6.029,CST-1368DR,6073,8501,15114,0.131,551
2020-07-16T02:45:14,42.805,6.029,CST-1368DR,6072,8501,15115,0.130,551
2020-07-16T02:48:15,42.805,6.029,CST-1368DR,6072,8501,15116,0.130,551
2020-07-16T02:51:17,42.805,6.029,CST-1368DR,6072,8502,15117,0.130,551
2020-07-16T02:54:19,42.805,6.029,CST-1368DR,6072,8501,15116,0.130,551
2020-07-16T02:57:20,42.805,6.029,CST-1368DR,6072,8501,15115,0.130,551
2020-07-16T03:00:22,42.805,6.029,CST-1368DR,6072,8502,15117,0.130,551
2020-07-16T03:03:24,42.805,6.029,CST-1368DR,6072,8502,15117,0.130,551
2020-07-16T03:06:25,42.805,6.029,CST-1368DR,6072,8502,15117,0.130,551
2020-07-16T03:09:27,42.805,6.029,CST-1368DR,6072,8502,15118,0.130,551
2020-07-16T03:12:29,42.805,6.029,CST-1368DR,6072,8502,15117,0.130,551
2020-07-16T03:15:30,42.805,6.029,CST-1368DR,6072,8501,15116,0.130,551
2020-07-16T03:18:32,42.805,6.029,CST-1368DR,6072,8501,15116,0.130,551
2020-07-16T03:21:34,42.805,6.029,CST-1368DR,6072,8502,15118,0.130,551
2020-07-16T03:24:35,42.805,6.029,CST-1368DR,6072,8502,15117,0.130,551
2020-07-16T03:27:37,42.805,6.029,CST-1368DR,6072,8502,15117,0.130,551
2020-07-16T03:30:39,42.805,6.029,CST-1368DR,6072,8501,15116,0.130,551
2020-07-16T03:33:40,42.805,6.029,CST-1368DR,6072,8502,15116,0.130,551
2020-07-16T03:36:42,42.805,6.029,CST-1368DR,6072,8500,15114,0.131,551
2020-07-16T03:39:44,42.805,6.029,CST-1368DR,6072,8502,15117,0.130,551
2020-07-16T03:42:45,42.805,6.029,CST-1368DR,6072,8501,15116,0.130,551
2020-07-16T03:45:47,42.805,6.029,CST-1368DR,6072,8500,15114,0.131,551
2020-07-16T03:48:49,42.805,6.029,CST-1368DR,6072,8501,15116,0.130,551
2020-07-16T03:51:51,42.805,6.029,CST-1368DR,6072,8501,15115,0.130,550
2020-07-16T03:54:52,42.805,6.029,CST-1368DR,6072,8502,15116,0.130,551
2020-07-16T03:57:54,42.805,6.029,CST-1368DR,6072,8502,15117,0.130,551
2020-07-16T04:00:56,42.805,6.029,CST-1368DR,6072,8501,15116,0.130,551
2020-07-16T04:03:57,42.805,6.029,CST-1368DR,6072,8502,15116,0.130,551
2020-07-16T04:06:59,42.805,6.029,CST-1368DR,6072,8502,15117,0.130,551
2020-07-16T04:10:01,42.805,6.029,CST-1368DR,6072,8502,15116,0.130,551
2020-07-16T04:13:03,42.805,6.029,CST-1368DR,6072,8501,15115,0.130,551
2020-07-16T04:16:04,42.805,6.029,CST-1368DR,6072,8502,15117,0.130,551
2020-07-16T04:19:06,42.805,6.029,CST-1368DR,6072,8502,15117,0.130,551
2020-07-16T04:22:08,42.805,6.029,CST-1368DR,6072,8501,15116,0.130,551
2020-07-16T04:25:09,42.805,6.029,CST-1368DR,6072,8502,15117,0.130,551
2020-07-16T04:28:11,42.805,6.029,CST-1368DR,6072,8502,15116,0.130,551
2020-07-16T04:31:13,42.805,6.029,CST-1368DR,6072,8501,15115,0.130,551
2020-07-16T04:34:14,42.805,6.029,CST-1368DR,6072,8502,15116,0.130,551
2020-07-16T04:37:16,42.805,6.029,CST-1368DR,6072,8501,15115,0.130,551
2020-07-16T04:40:18,42.805,6.029,CST-1368DR,6072,8502,15117,0.130,551
2020-07-16T04:43:19,42.805,6.029,CST-1368DR,6072,8502,15116,0.130,551
2020-07-16T04:46:21,42.805,6.029,CST-1368DR,6072,8502,15117,0.130,551
2020-07-16T04:49:23,42.805,6.029,CST-1368DR,6072,8501,15115,0.130,551
2020-07-16T04:52:25,42.805,6.029,CST-1368DR,6072,8501,15116,0.130,551
2020-07-16T04:55:26,42.805,6.029,CST-1368DR,6072,8501,15115,0.130,551
2020-07-16T04:58:28,42.805,6.029,CST-1368DR,6072,8502,15116,0.130,551
2020-07-16T05:01:30,42.805,6.029,CST-1368DR,6072,8501,15115,0.130,551
2020-07-16T05:04:31,42.805,6.029,CST-1368DR,6072,8502,15117,0.130,551
2020-07-16T05:07:33,42.805,6.029,CST-1368DR,6072,8501,15116,0.130,551
2020-07-16T05:10:35,42.805,6.029,CST-1368DR,6072,8500,15113,0.131,551
2020-07-16T05:13:36,42.805,6.029,CST-1368DR,6072,8502,15116,0.130,551
2020-07-16T05:16:38,42.805,6.029,CST-1368DR,6072,8501,15115,0.130,551
2020-07-16T05:19:40,42.805,6.029,CST-1368DR,6072,8502,15116,0.130,551
2020-07-16T05:22:41,42.805,6.029,CST-1368DR,6072,8501,15115,0.130,551
2020-07-16T05:25:43,42.805,6.029,CST-1368DR,6072,8502,15116,0.130,551
2020-07-16T05:28:45,42.805,6.029,CST-1368DR,6072,8502,15116,0.130,551
2020-07-16T05:31:47,42.805,6.029,CST-1368DR,6072,8501,15116,0.130,551
2020-07-16T05:34:48,42.805,6.029,CST-1368DR,6072,8501,15115,0.130,551
2020-07-16T05:37:50,42.805,6.029,CST-1368DR,6072,8502,15117,0.130,551
2020-07-16T05:40:52,42.805,6.029,CST-1368DR,6072,8500,15114,0.131,551
2020-07-16T05:43:53,42.805,6.029,CST-1368DR,6072,8500,15113,0.131,551
2020-07-16T05:46:55,42.805,6.029,CST-1368DR,6072,8501,15115,0.130,551
2020-07-16T05:49:57,42.805,6.029,CST-1368DR,6072,8502,15116,0.130,551
2020-07-16T05:52:58,42.805,6.029,CST-1368DR,6072,8501,15115,0.130,551
2020-07-16T05:56:00,42.805,6.029,CST-1368DR,6072,8498,15110,0.132,551
2020-07-16T05:59:02,42.805,6.029,CST-1368DR,6072,8501,15115,0.130,551
2020-07-16T06:02:03,42.805,6.029,CST-1368DR,6072,8502,15117,0.130,551
2020-07-16T06:05:05,42.805,6.029,CST-1368DR,6072,8502,15117,0.130,551
2020-07-16T06:08:07,42.805,6.029,CST-1368DR,6072,8501,15115,0.130,551
2020-07-16T06:11:08,42.805,6.029,CST-1368DR,6072,8501,15115,0.130,551
2020-07-16T06:14:10,42.805,6.029,CST-1368DR,6072,8501,15115,0.130,551
2020-07-16T06:17:12,42.805,6.029,CST-1368DR,6072,8501,15115,0.130,551
2020-07-16T06:20:13,42.805,6.029,CST-1368DR,6072,8501,15116,0.130,551
2020-07-16T06:23:15,42.805,6.029,CST-1368DR,6072,8501,15115,0.130,551
2020-07-16T06:26:17,42.805,6.029,CST-1368DR,6072,8501,15116,0.130,551
2020-07-16T06:29:19,42.805,6.029,CST-1368DR,6072,8501,15115,0.130,551
2020-07-16T06:32:20,42.805,6.029,CST-1368DR,6072,8501,15116,0.130,551
2020-07-16T06:35:22,42.805,6.029,CST-1368DR,6072,8502,15116,0.130,551
2020-07-16T06:38:24,42.805,6.029,CST-1368DR,6072,8501,15116,0.130,551
2020-07-16T06:41:25,42.805,6.029,CST-1368DR,6072,8499,15112,0.131,550
2020-07-16T06:44:27,42.805,6.029,CST-1368DR,6072,8502,15116,0.130,551
2020-07-16T06:47:29,42.805,6.029,CST-1368DR,6072,8502,15116,0.130,551
2020-07-16T06:50:30,42.805,6.029,CST-1368DR,6072,8502,15117,0.130,551
2020-07-16T06:53:32,42.805,6.029,CST-1368DR,6072,8501,15116,0.130,551
2020-07-16T06:56:34,42.805,6.029,CST-1368DR,6072,8501,15116,0.130,551
2020-07-16T06:59:36,42.805,6.029,CST-1368DR,6072,8501,15116,0.130,551
2020-07-16T07:02:37,42.805,6.029,CST-1368DR,6072,8501,15115,0.130,551
2020-07-16T07:05:39,42.805,6.029,CST-1368DR,6072,8501,15115,0.130,551
2020-07-16T07:08:41,42.805,6.029,CST-1368DR,6072,8501,15115,0.130,551
2020-07-16T07:11:43,42.805,6.029,CST-1368DR,6072,8501,15115,0.130,551
2020-07-16T07:14:45,42.805,6.029,CST-1368DR,6072,8500,15114,0.131,551
2020-07-16T07:17:46,42.805,6.029,CST-1368DR,6072,8501,15115,0.130,551
2020-07-16T07:20:48,42.805,6.029,CST-1368DR,6072,8500,15113,0.131,551
2020-07-16T07:23:50,42.805,6.029,CST-1368DR,6072,8501,15115,0.130,551
2020-07-16T07:26:51,42.805,6.029,CST-1368DR,6072,8501,15115,0.130,551
2020-07-16T07:29:53,42.805,6.029,CST-1368DR,6072,8500,15113,0.131,551
2020-07-16T07:32:55,42.805,6.029,CST-1368DR,6072,8501,15116,0.130,551
2020-07-16T07:35:56,42.805,6.029,CST-1368DR,6072,8500,15114,0.131,551
2020-07-16T07:38:58,42.805,6.029,CST-1368DR,6072,8502,15116,0.130,551
2020-07-16T07:42:00,42.805,6.029,CST-1368DR,6072,8500,15114,0.131,551
2020-07-16T07:45:01,42.805,6.029,CST-1368DR,6072,8501,15115,0.130,551
2020-07-16T07:48:03,42.805,6.029,CST-1368DR,6072,8501,15116,0.130,551
2020-07-16T07:51:05,42.805,6.029,CST-1368DR,6072,8500,15114,0.131,551
2020-07-16T07:54:06,42.805,6.029,CST-1368DR,6072,8501,15115,0.130,551
2020-07-16T07:57:08,42.805,6.029,CST-1368DR,6072,8500,15113,0.131,551
2020-07-16T08:00:10,42.805,6.029,CST-1368DR,6072,8500,15114,0.131,551
2020-07-16T08:03:12,42.805,6.029,CST-1368DR,6072,8500,15113,0.131,551
2020-07-16T08:06:14,42.805,6.029,CST-1368DR,6072,8500,15113,0.131,550
2020-07-16T08:09:15,42.805,6.029,CST-1368DR,6072,8502,15116,0.130,551
2020-07-16T08:12:17,42.805,6.029,CST-1368DR,6072,8500,15114,0.131,551
2020-07-16T08:15:19,42.805,6.029,CST-1368DR,6072,8500,15113,0.131,551
2020-07-16T08:18:20,42.805,6.029,CST-1368DR,6072,8500,15113,0.131,551
2020-07-16T08:21:22,42.805,6.029,CST-1368DR,6071,8501,15117,0.130,551
2020-07-16T08:24:24,42.805,6.029,CST-1368DR,6072,8500,15114,0.131,551
2020-07-16T08:27:26,42.805,6.029,CST-1368DR,6072,8500,15114,0.131,551
2020-07-16T08:30:27,42.805,6.029,CST-1368DR,6072,8501,15115,0.130,551
2020-07-16T08:33:29,42.805,6.029,CST-1368DR,6072,8500,15114,0.131,551
2020-07-16T08:36:31,42.805,6.029,CST-1368DR,6072,8500,15114,0.131,551
2020-07-16T08:39:32,42.805,6.029,CST-1368DR,6071,8501,15117,0.130,551
2020-07-16T08:42:34,42.805,6.029,CST-1368DR,6071,8500,15117,0.130,551
2020-07-16T08:45:36,42.805,6.029,CST-1368DR,6072,8500,15114,0.131,551
2020-07-16T08:48:37,42.805,6.029,CST-1368DR,6071,8500,15117,0.130,551
2020-07-16T08:51:39,42.805,6.029,CST-1368DR,6071,8500,15116,0.130,551
2020-07-16T08:54:41,42.805,6.029,CST-1368DR,6071,8500,15116,0.130,551
2020-07-16T08:57:42,42.805,6.029,CST-1368DR,6071,8500,15115,0.130,551
2020-07-16T09:00:44,42.805,6.029,CST-1368DR,6071,8501,15118,0.130,551
2020-07-16T09:03:46,42.805,6.029,CST-1368DR,6071,8500,15116,0.130,551
2020-07-16T09:06:48,42.805,6.029,CST-1368DR,6071,8499,15114,0.131,551
2020-07-16T09:09:49,42.805,6.029,CST-1368DR,6071,8500,15116,0.130,551
2020-07-16T09:12:51,42.805,6.029,CST-1368DR,6071,8499,15115,0.130,551
2020-07-16T09:15:53,42.805,6.029,CST-1368DR,6071,8500,15117,0.130,551
2020-07-16T09:18:55,42.805,6.029,CST-1368DR,6071,8500,15116,0.130,551
2020-07-16T09:21:56,42.805,6.029,CST-1368DR,6071,8500,15116,0.130,550
2020-07-16T09:24:58,42.805,6.029,CST-1368DR,6071,8499,15114,0.131,551
2020-07-16T09:28:00,42.805,6.029,CST-1368DR,6071,8500,15116,0.130,550
2020-07-16T09:31:01,42.805,6.029,CST-1368DR,6071,8500,15116,0.130,551
2020-07-16T09:34:03,42.805,6.029,CST-1368DR,6071,8499,15115,0.130,551
2020-07-16T09:37:05,42.805,6.029,CST-1368DR,6071,8500,15116,0.130,551
2020-07-16T09:40:06,42.805,6.029,CST-1368DR,6071,8500,15115,0.130,551
2020-07-16T09:43:08,42.805,6.029,CST-1368DR,6071,8499,15113,0.131,551
2020-07-16T09:46:10,42.805,6.029,CST-1368DR,6071,8500,15117,0.130,551
2020-07-16T09:49:11,42.805,6.029,CST-1368DR,6071,8500,15117,0.130,551
2020-07-16T09:52:13,42.805,6.029,CST-1368DR,6071,8500,15117,0.130,551
2020-07-16T09:55:15,42.805,6.029,CST-1368DR,6071,8500,15115,0.130,551
2020-07-16T09:58:16,42.805,6.029,CST-1368DR,6071,8500,15115,0.130,551
2020-07-16T10:01:18,42.805,6.029,CST-1368DR,6071,8500,15115,0.130,551
2020-07-16T10:04:20,42.805,6.029,CST-1368DR,6071,8500,15115,0.130,551
2020-07-16T10:07:21,42.805,6.029,CST-1368DR,6071,8499,15114,0.131,551
2020-07-16T10:10:23,42.805,6.029,CST-1368DR,6071,8500,15116,0.130,551
2020-07-16T10:13:25,42.805,6.029,CST-1368DR,6071,8500,15116,0.130,551
2020-07-16T10:16:27,42.805,6.029,CST-1368DR,6071,8500,15116,0.130,551
2020-07-16T10:19:28,42.805,6.029,CST-1368DR,6071,8497,15111,0.131,551
2020-07-16T10:22:30,42.805,6.029,CST-1368DR,6071,8499,15114,0.131,551
2020-07-16T10:25:32,42.805,6.029,CST-1368DR,6071,8501,15117,0.130,551
2020-07-16T10:28:34,42.805,6.029,CST-1368DR,6071,8500,15116,0.130,551
2020-07-16T10:31:35,42.805,6.029,CST-1368DR,6071,8500,15116,0.130,551
2020-07-16T10:34:37,42.805,6.029,CST-1368DR,6071,8499,15115,0.130,551
2020-07-16T10:37:39,42.805,6.029,CST-1368DR,6071,8500,15116,0.130,551
2020-07-16T10:40:40,42.805,6.029,CST-1368DR,6071,8500,15117,0.130,551
2020-07-16T10:43:42,42.805,6.029,CST-1368DR,6071,8499,15114,0.131,550
2020-07-16T10:46:44,42.805,6.029,CST-1368DR,6071,8500,15116,0.130,551
2020-07-16T10:49:45,42.805,6.029,CST-1368DR,6071,8500,15117,0.130,551
2020-07-16T10:52:47,42.805,6.029,CST-1368DR,6071,8499,15114,0.131,551
2020-07-16T10:55:49,42.805,6.029,CST-1368DR,6071,8500,15116,0.130,551
2020-07-16T10:58:50,42.805,6.029,CST-1368DR,6071,8500,15116,0.130,551
2020-07-16T11:01:52,42.805,6.029,CST-1368DR,6071,8500,15115,0.130,551
2020-07-16T11:04:54,42.805,6.029,CST-1368DR,6071,8500,15115,0.130,551
2020-07-16T11:07:56,42.805,6.029,CST-1368DR,6071,8499,15115,0.130,551
2020-07-16T11:10:57,42.805,6.029,CST-1368DR,6071,8500,15116,0.130,551
2020-07-16T11:13:59,42.805,6.029,CST-1368DR,6071,8500,15116,0.130,551
2020-07-16T11:17:01,42.805,6.029,CST-1368DR,6071,8500,15115,0.130,551
2020-07-16T11:20:02,42.805,6.029,CST-1368DR,6071,8500,15116,0.130,551
2020-07-16T11:23:04,42.805,6.029,CST-1368DR,6071,8499,15114,0.131,551
2020-07-16T11:26:06,42.805,6.029,CST-1368DR,6071,8499,15114,0.131,551
2020-07-16T11:29:07,42.805,6.029,CST-1368DR,6071,8500,15116,0.130,551
2020-07-16T11:32:09,42.805,6.029,CST-1368DR,6071,8499,15115,0.130,551
2020-07-16T11:35:11,42.805,6.029,CST-1368DR,6071,8497,15111,0.131,551
2020-07-16T11:38:12,42.805,6.029,CST-1368DR,6071,8499,15113,0.131,551
2020-07-16T11:41:14,42.805,6.029,CST-1368DR,6071,8500,15116,0.130,551
2020-07-16T11:44:16,42.805,6.029,CST-1368DR,6071,8500,15115,0.130,551
2020-07-16T11:47:17,42.805,6.029,CST-1368DR,6071,8499,15114,0.131,551
2020-07-16T11:50:19,42.805,6.029,CST-1368DR,6071,8498,15113,0.131,551
2020-07-16T11:53:21,42.805,6.029,CST-1368DR,6071,8499,15115,0.130,551
2020-07-16T11:56:22,42.805,6.029,CST-1368DR,6071,8498,15113,0.131,551
2020-07-16T11:59:24,42.805,6.029,CST-1368DR,6071,8499,15114,0.131,551
2020-07-16T12:02:26,42.805,6.029,CST-1368DR,6071,8499,15115,0.130,551
2020-07-16T12:05:27,42.805,6.029,CST-1368DR,6071,8499,15115,0.130,551
2020-07-16T12:08:29,42.805,6.029,CST-1368DR,6071,8499,15114,0.131,551
2020-07-16T12:11:31,42.805,6.029,CST-1368DR,6071,8499,15115,0.130,551
2020-07-16T12:14:33,42.805,6.029,CST-1368DR,6071,8500,15116,0.130,551
2020-07-16T12:17:34,42.805,6.029,CST-1368DR,6071,8499,15114,0.131,551
2020-07-16T12:20:36,42.805,6.029,CST-1368DR,6071,8498,15113,0.131,551
2020-07-16T12:23:38,42.805,6.029,CST-1368DR,6071,8499,15115,0.130,551
2020-07-16T12:26:40,42.805,6.029,CST-1368DR,6071,8499,15114,0.131,551
2020-07-16T12:29:41,42.805,6.029,CST-1368DR,6071,8499,15114,0.131,551
2020-07-16T12:32:43,42.805,6.029,CST-1368DR,6071,8499,15113,0.131,551
2020-07-16T12:35:45,42.805,6.029,CST-1368DR,6071,8497,15111,0.131,551
2020-07-16T12:38:46,42.805,6.029,CST-1368DR,6071,8500,15115,0.130,551
2020-07-16T12:41:48,42.805,6.029,CST-1368DR,6071,8499,15114,0.131,551
2020-07-16T12:44:50,42.805,6.029,CST-1368DR,6071,8499,15114,0.131,551
2020-07-16T12:47:51,42.805,6.029,CST-1368DR,6071,8499,15114,0.131,551
2020-07-16T12:50:53,42.805,6.029,CST-1368DR,6071,8499,15113,0.131,551
2020-07-16T12:53:55,42.805,6.029,CST-1368DR,6071,8499,15114,0.131,551
2020-07-16T12:56:57,42.805,6.029,CST-1368DR,6071,8499,15115,0.130,551
2020-07-16T12:59:58,42.805,6.029,CST-1368DR,6071,8499,15113,0.131,551
2020-07-16T13:03:00,42.805,6.029,CST-1368DR,6071,8499,15115,0.130,551
2020-07-16T13:06:02,42.805,6.029,CST-1368DR,6071,8499,15115,0.130,551
2020-07-16T13:09:03,42.805,6.029,CST-1368DR,6071,8499,15113,0.131,551
2020-07-16T13:12:05,42.805,6.029,CST-1368DR,6071,8499,15113,0.131,551
2020-07-16T13:15:07,42.805,6.029,CST-1368DR,6071,8499,15114,0.131,551
2020-07-16T13:18:08,42.805,6.029,CST-1368DR,6071,8499,15114,0.131,551
2020-07-16T13:21:10,42.805,6.029,CST-1368DR,6071,8499,15113,0.131,551
2020-07-16T13:24:12,42.805,6.029,CST-1368DR,6071,8499,15114,0.131,551
2020-07-16T13:27:14,42.805,6.029,CST-1368DR,6071,8499,15114,0.131,550
2020-07-16T13:30:15,42.805,6.029,CST-1368DR,6071,8499,15114,0.131,551
2020-07-16T13:33:17,42.805,6.029,CST-1368DR,6071,8499,15114,0.131,551
2020-07-16T13:36:19,42.805,6.029,CST-1368DR,6071,8499,15114,0.131,551
2020-07-16T13:39:20,42.805,6.029,CST-1368DR,6071,8498,15113,0.131,551
2020-07-16T13:42:22,42.805,6.029,CST-1368DR,6071,8500,15115,0.130,551
2020-07-16T13:45:24,42.805,6.029,CST-1368DR,6071,8499,15113,0.131,551
2020-07-16T13:48:26,42.805,6.029,CST-1368DR,6071,8499,15114,0.131,551
2020-07-16T13:51:27,42.805,6.029,CST-1368DR,6071,8499,15114,0.131,551
2020-07-16T13:54:29,42.805,6.029,CST-1368DR,6071,8499,15113,0.131,551
2020-07-16T13:57:31,42.805,6.029,CST-1368DR,6071,8499,15113,0.131,551
2020-07-16T14:00:32,42.805,6.029,CST-1368DR,6071,8499,15115,0.130,551
2020-07-16T14:03:34,42.805,6.029,CST-1368DR,6071,8499,15113,0.131,551
2020-07-16T14:06:36,42.805,6.029,CST-1368DR,6071,8499,15114,0.131,551
2020-07-16T14:09:38,42.805,6.029,CST-1368DR,6071,8498,15113,0.131,551
2020-07-16T14:12:39,42.805,6.029,CST-1368DR,6071,8497,15110,0.132,551
2020-07-16T14:15:41,42.805,6.029,CST-1368DR,6071,8499,15114,0.131,551
2020-07-16T14:18:43,42.805,6.029,CST-1368DR,6071,8496,15108,0.132,551
2020-07-16T14:21:44,42.805,6.029,CST-1368DR,6071,8499,15113,0.131,551
2020-07-16T14:24:46,42.805,6.029,CST-1368DR,6071,8499,15114,0.131,551
2020-07-16T14:27:48,42.805,6.029,CST-1368DR,6071,8498,15113,0.131,551
2020-07-16T14:30:49,42.805,6.029,CST-1368DR,6071,8499,15113,0.131,551
2020-07-16T14:33:51,42.805,6.029,CST-1368DR,6071,8499,15113,0.131,551
2020-07-16T14:36:53,42.805,6.029,CST-1368DR,6071,8499,15113,0.131,551
2020-07-16T14:39:54,42.805,6.029,CST-1368DR,6071,8498,15113,0.131,551
2020-07-16T14:42:56,42.805,6.029,CST-1368DR,6071,8499,15113,0.131,551
2020-07-16T14:45:58,42.805,6.029,CST-1368DR,6071,8498,15113,0.131,551
2020-07-16T14:49:00,42.805,6.029,CST-1368DR,6071,8498,15113,0.131,551
2020-07-16T14:52:01,42.805,6.029,CST-1368DR,6071,8498,15113,0.131,551
2020-07-16T14:55:03,42.805,6.029,CST-1368DR,6071,8497,15111,0.131,551
2020-07-16T14:58:05,42.805,6.029,CST-1368DR,6071,8498,15113,0.131,551
2020-07-16T15:01:06,42.805,6.029,CST-1368DR,6071,8497,15110,0.132,551
2020-07-16T15:04:08,42.805,6.029,CST-1368DR,6071,8497,15111,0.131,551
2020-07-16T15:07:10,42.805,6.029,CST-1368DR,6071,8498,15113,0.131,551
2020-07-16T15:10:11,42.805,6.029,CST-1368DR,6071,8499,15114,0.131,551
2020-07-16T15:13:13,42.805,6.029,CST-1368DR,6071,8498,15112,0.131,551
2020-07-16T15:16:15,42.805,6.029,CST-1368DR,6071,8499,15113,0.131,551
2020-07-16T15:19:16,42.805,6.029,CST-1368DR,6071,8499,15114,0.131,550
2020-07-16T15:22:18,42.805,6.029,CST-1368DR,6071,8499,15113,0.131,551
2020-07-16T15:25:20,42.805,6.029,CST-1368DR,6071,8499,15113,0.131,551
2020-07-16T15:28:22,42.805,6.029,CST-1368DR,6071,8499,15114,0.131,551
2020-07-16T15:31:23,42.805,6.029,CST-1368DR,6070,8498,15115,0.130,551
2020-07-16T15:34:25,42.805,6.029,CST-1368DR,6071,8497,15111,0.131,551
2020-07-16T15:37:27,42.805,6.029,CST-1368DR,6071,8498,15113,0.131,551
2020-07-16T15:40:28,42.805,6.029,CST-1368DR,6070,8498,15115,0.130,551
2020-07-16T15:43:30,42.805,6.029,CST-1368DR,6070,8498,15115,0.130,551
2020-07-16T15:46:32,42.805,6.029,CST-1368DR,6071,8498,15112,0.131,551
2020-07-16T15:49:33,42.805,6.029,CST-1368DR,6070,8497,15113,0.131,551
2020-07-16T15:52:35,42.805,6.029,CST-1368DR,6071,8499,15113,0.131,551
2020-07-16T15:55:37,42.805,6.029,CST-1368DR,6070,8497,15113,0.131,551
2020-07-16T15:58:38,42.805,6.029,CST-1368DR,6070,8497,15112,0.131,550
2020-07-16T16:01:40,42.805,6.029,CST-1368DR,6070,8497,15114,0.131,551
2020-07-16T16:04:42,42.805,6.029,CST-1368DR,6070,8498,15115,0.130,551
2020-07-16T16:07:44,42.805,6.029,CST-1368DR,6070,8499,15116,0.130,550
2020-07-16T16:10:45,42.805,6.029,CST-1368DR,6070,8498,15115,0.130,551
2020-07-16T16:13:47,42.805,6.029,CST-1368DR,6070,8498,15115,0.130,551
2020-07-16T16:16:49,42.805,6.029,CST-1368DR,6070,8498,15115,0.130,551
2020-07-16T16:19:51,42.805,6.029,CST-1368DR,6070,8499,15116,0.130,551
2020-07-16T16:22:52,42.805,6.029,CST-1368DR,6070,8498,15115,0.130,551
2020-07-16T16:25:54,42.805,6.029,CST-1368DR,6070,8497,15114,0.131,551
2020-07-16T16:28:56,42.805,6.029,CST-1368DR,6070,8498,15114,0.131,551
2020-07-16T16:31:57,42.805,6.029,CST-1368DR,6070,8498,15115,0.130,550
2020-07-16T16:34:59,42.805,6.029,CST-1368DR,6070,8499,15116,0.130,551
2020-07-16T16:38:01,42.805,6.029,CST-1368DR,6070,8499,15116,0.130,551
2020-07-16T16:41:02,42.805,6.029,CST-1368DR,6070,8497,15113,0.131,551
2020-07-16T16:44:04,42.805,6.029,CST-1368DR,6070,8498,15115,0.130,551
2020-07-16T16:47:06,42.805,6.029,CST-1368DR,6070,8498,15115,0.130,551
2020-07-16T16:50:07,42.805,6.029,CST-1368DR,6070,8499,15116,0.130,551
2020-07-16T16:53:09,42.805,6.029,CST-1368DR,6070,8498,15115,0.130,551